Temp
26 23 23 23 22 25 25 24 22 23 22 23 23 22 23 23 23 23 23 23 22 23 24 24 23 23 23 23 22 22 21 21 21 21 20 20 21 20 20 20 20 20 19 19
24 23 24 24 23 25 25 25 24 24 24 23 23 23 23 23 23 24 25 24 24 24 24 25 24 24 24 24 23 22 22 21 21 21 22 21 21 20 20 20 20 20 20 19
23 25 26 27 25 24 24 23 22 23 24 22 21 21 21 22 24 24 25 25 26 25 25 25 25 25 24 24 24 23 22 21 21 21 21 21 20 20 21 21 21 20 20 19
24 25 27 27 26 25 26 24 25 23 24 22 21 22 21 21 21 23 22 23 25 25 25 25 25 25 24 24 24 23 22 22 22 21 21 21 21 21 21 21 21 21 20 20
25 27 26 27 27 28 27 26 25 24 21 20 21 20 20 19 20 21 21 22 22 24 24 25 25 25 25 25 25 24 23 23 22 22 22 21 21 21 21 21 21 21 20 20
24 28 28 26 29 28 26 23 22 21 20 21 21 21 19 19 21 21 22 22 23 24 25 24 25 26 25 24 25 24 24 23 22 22 22 21 21 21 21 21 21 21 21 20
25 27 27 29 29 28 25 22 20 21 21 21 20 19 19 21 21 21 21 23 25 24 23 25 25 25 25 25 24 24 24 24 23 22 22 22 21 21 21 21 21 21 21 21
24 25 29 30 28 28 27 24 22 26 21 21 21 21 20 20 22 23 22 22 24 23 23 24 25 25 25 25 25 24 24 24 24 23 23 22 22 21 21 21 21 22 22 21
23 25 26 27 29 28 28 25 23 18 18 20 18 21 20 20 20 21 20 21 23 21 22 24 24 25 25 26 25 25 25 24 24 24 23 23 22 22 22 22 22 22 22 21
26 25 27 28 30 28 29 23 25 19 21 20 20 19 19 21 22 21 21 21 22 23 23 24 25 25 25 26 26 25 25 25 25 25 24 23 23 23 22 22 22 22 22 22
24 24 26 27 28 28 25 25 19 18 19 19 19 20 18 20 19 20 22 22 22 23 24 25 25 25 25 25 26 26 25 25 25 25 24 24 24 23 23 22 22 22 22 22
25 21 24 28 27 25 26 27 22 21 21 17 18 20 21 19 19 19 21 21 21 23 24 25 24 25 26 26 26 26 26 25 25 25 25 24 24 23 23 23 23 23 23 22
26 21 21 24 24 25 26 25 19 18 18 19 20 20 20 18 19 21 20 21 22 22 24 26 25 25 26 26 25 26 26 26 26 26 25 25 24 24 24 24 24 24 23 23
25 19 21 22 24 24 27 27 25 22 21 18 19 21 20 19 19 20 22 21 20 21 22 23 25 25 26 26 25 24 24 25 26 25 25 25 24 24 24 24 24 24 24 23
22 23 23 24 23 25 27 27 27 25 20 24 21 21 20 19 19 21 21 20 22 21 21 22 22 22 25 25 25 23 23 23 22 22 23 25 25 24 23 24 24 24 23 23
20 23 23 24 24 24 25 25 24 22 21 21 21 23 20 22 21 20 21 22 23 21 19 20 21 21 22 23 24 24 23 23 23 22 22 22 24 24 23 23 23 22 22 22
21 20 20 23 21 24 23 24 25 24 23 23 23 22 20 20 20 20 21 21 22 22 21 20 20 21 22 22 23 23 24 24 25 23 22 21 20 22 24 23 22 23 22 22
20 19 17 22 21 24 24 22 24 24 22 23 22 21 22 22 22 22 22 22 22 22 22 21 22 22 21 21 21 21 22 24 25 22 22 22 19 18 20 21 23 21 20 20
20 17 18 21 20 23 25 24 24 23 24 24 22 22 22 23 22 20 22 22 23 22 22 22 22 22 22 22 22 22 22 21 21 20 22 22 20 19 20 21 21 21 21 21
16 16 20 17 24 24 22 25 25 24 21 23 23 22 21 22 19 18 23 23 23 22 22 22 22 22 22 21 21 21 21 21 20 20 20 18 17 18 20 20 20 20 20 20
19 17 19 17 21 21 22 24 24 24 21 23 24 23 22 20 23 24 23 23 23 23 22 22 22 21 21 20 20 20 20 19 19 19 18 18 18 19 19 20 20 20 20 20
21 19 19 17 20 23 24 24 26 21 22 25 25 24 23 24 25 24 23 23 23 23 22 22 22 22 21 21 20 20 19 19 19 19 19 19 19 19 19 20 20 20 19 19
21 19 19 19 19 21 23 24 24 25 25 25 25 25 24 25 24 24 23 22 22 22 22 22 22 22 22 21 20 19 19 19 19 19 19 19 19 19 19 18 18 18 18 18
20 20 19 20 22 23 24 24 25 25 25 24 24 24 24 24 24 24 24 23 23 23 22 22 22 22 22 21 20 19 19 19 19 19 19 19 19 19 19 18 18 18 18 18
20 20 18 18 21 23 24 25 25 25 25 25 25 24 24 24 23 24 23 23 23 22 22 22 21 21 21 21 21 20 20 19 20 19 19 19 19 19 19 18 18 18 17 18
21 19 18 18 23 23 24 25 24 25 24 25 24 24 23 23 23 23 23 22 22 22 21 21 21 20 21 21 21 19 19 19 20 19 19 19 19 19 19 18 18 18 18 17
Height
1508 1517 1525 1517 1515 1511 1512 1527 1534 1522 1522 1528 1526 1523 1519 1525 1532 1535 1538 1540 1542 1544 1546 1550 1554 1556 1560 1564 1567 1567 1569 1571 1573 1574 1575 1577 1578 1579 1581 1582 1582 1583 1582 1580
1514 1520 1505 1504 1505 1509 1511 1518 1525 1519 1519 1527 1529 1532 1528 1524 1522 1526 1530 1535 1538 1542 1545 1546 1550 1553 1555 1560 1563 1566 1568 1571 1572 1574 1575 1577 1579 1579 1580 1581 1582 1583 1582 1581
1516 1504 1499 1504 1506 1512 1512 1516 1518 1520 1521 1525 1534 1541 1536 1530 1526 1522 1525 1529 1534 1537 1542 1543 1544 1548 1553 1558 1561 1563 1566 1568 1571 1574 1575 1576 1577 1577 1578 1580 1581 1582 1582 1581
1509 1497 1498 1498 1504 1506 1510 1497 1506 1516 1522 1541 1532 1555 1539 1534 1528 1529 1530 1531 1533 1536 1540 1542 1543 1546 1551 1555 1558 1560 1563 1567 1570 1572 1573 1574 1575 1576 1577 1578 1580 1581 1581 1580
1507 1496 1498 1500 1495 1492 1500 1492 1505 1513 1530 1539 1541 1552 1548 1537 1532 1526 1527 1529 1531 1534 1540 1540 1542 1547 1552 1553 1555 1558 1562 1564 1567 1569 1571 1572 1574 1575 1577 1578 1579 1580 1580 1579
1496 1491 1492 1488 1482 1486 1493 1508 1520 1527 1536 1558 1546 1551 1555 1544 1531 1521 1516 1520 1524 1528 1533 1537 1541 1545 1550 1554 1555 1556 1559 1561 1564 1566 1568 1570 1572 1574 1575 1576 1578 1578 1579 1579
1501 1489 1481 1479 1486 1489 1498 1518 1556 1559 1560 1565 1546 1554 1547 1531 1523 1520 1514 1511 1515 1521 1528 1532 1537 1541 1545 1548 1551 1554 1557 1559 1562 1564 1566 1568 1571 1572 1573 1574 1576 1577 1578 1577
1520 1519 1484 1477 1482 1492 1495 1504 1541 1545 1567 1559 1544 1558 1544 1522 1521 1519 1515 1516 1512 1517 1523 1527 1531 1537 1541 1545 1549 1551 1554 1556 1558 1561 1563 1565 1568 1570 1571 1573 1574 1575 1575 1576
1520 1512 1481 1476 1477 1479 1496 1512 1507 1546 1553 1557 1563 1543 1527 1516 1514 1517 1519 1516 1507 1521 1524 1527 1530 1533 1537 1541 1544 1545 1550 1555 1558 1559 1561 1563 1565 1567 1568 1570 1572 1573 1574 1575
1497 1515 1486 1479 1475 1480 1485 1496 1519 1534 1559 1574 1565 1557 1548 1516 1511 1516 1519 1517 1516 1518 1521 1525 1526 1529 1532 1536 1539 1545 1547 1549 1552 1556 1558 1559 1561 1563 1565 1567 1569 1570 1571 1572
1492 1506 1498 1486 1488 1492 1499 1505 1519 1528 1541 1568 1576 1554 1517 1511 1513 1517 1525 1523 1521 1520 1518 1517 1518 1521 1525 1529 1533 1536 1542 1546 1550 1553 1555 1556 1557 1559 1563 1564 1566 1567 1568 1570
1490 1505 1513 1496 1486 1486 1486 1489 1506 1531 1542 1552 1553 1548 1506 1508 1510 1511 1508 1513 1515 1512 1510 1511 1513 1516 1519 1524 1529 1532 1538 1543 1546 1550 1553 1555 1556 1556 1557 1560 1562 1564 1565 1567
1487 1513 1529 1514 1502 1492 1496 1493 1505 1513 1524 1544 1550 1545 1509 1510 1510 1511 1513 1512 1511 1506 1505 1509 1511 1515 1517 1520 1524 1527 1532 1536 1541 1546 1548 1551 1553 1554 1554 1555 1556 1558 1560 1562
1484 1513 1520 1534 1518 1505 1501 1493 1494 1504 1526 1539 1536 1527 1516 1513 1515 1511 1511 1512 1509 1508 1508 1507 1508 1512 1513 1517 1521 1524 1527 1532 1536 1539 1544 1547 1550 1552 1553 1553 1553 1554 1556 1557
1492 1514 1509 1506 1504 1498 1495 1495 1492 1497 1512 1514 1521 1524 1516 1515 1514 1512 1514 1514 1513 1514 1513 1511 1509 1511 1511 1514 1517 1521 1525 1528 1533 1537 1541 1542 1544 1547 1549 1550 1551 1552 1553 1553
1498 1512 1507 1508 1502 1500 1504 1498 1498 1500 1509 1511 1516 1518 1512 1513 1516 1517 1516 1515 1514 1515 1515 1513 1512 1512 1514 1515 1516 1518 1521 1526 1530 1532 1536 1540 1540 1542 1544 1546 1545 1546 1548 1549
1503 1512 1520 1522 1511 1504 1519 1506 1499 1500 1503 1503 1520 1510 1509 1516 1518 1518 1518 1518 1517 1517 1517 1518 1517 1516 1516 1517 1519 1522 1523 1524 1527 1526 1529 1535 1541 1538 1538 1538 1541 1541 1541 1543
1506 1512 1524 1525 1518 1537 1511 1498 1495 1498 1504 1503 1504 1506 1510 1514 1517 1518 1518 1518 1519 1520 1522 1522 1522 1521 1520 1521 1520 1521 1520 1521 1520 1519 1523 1528 1533 1540 1535 1534 1535 1535 1531 1531
1498 1511 1528 1532 1538 1521 1508 1502 1502 1503 1511 1504 1505 1506 1509 1515 1519 1521 1519 1520 1521 1522 1524 1524 1525 1526 1525 1524 1522 1521 1520 1519 1518 1519 1522 1521 1527 1532 1531 1530 1531 1531 1530 1530
1501 1504 1516 1535 1528 1532 1515 1501 1498 1499 1524 1505 1504 1507 1511 1516 1526 1520 1519 1521 1522 1524 1524 1525 1526 1527 1526 1525 1524 1524 1523 1522 1522 1522 1521 1523 1526 1527 1527 1528 1527 1525 1524 1524
1515 1519 1525 1533 1531 1521 1503 1500 1500 1520 1522 1502 1505 1508 1512 1515 1515 1517 1520 1522 1524 1526 1526 1525 1525 1526 1526 1526 1525 1523 1522 1521 1520 1521 1523 1525 1526 1526 1526 1524 1524 1522 1521 1521
1513 1522 1526 1532 1532 1527 1497 1497 1503 1501 1498 1500 1505 1508 1512 1514 1516 1517 1519 1521 1524 1526 1526 1527 1526 1526 1525 1524 1523 1523 1522 1521 1521 1522 1523 1523 1522 1522 1522 1521 1520 1519 1517 1517
1517 1511 1516 1517 1517 1500 1497 1496 1497 1499 1500 1504 1507 1509 1512 1515 1516 1517 1518 1520 1522 1523 1524 1525 1525 1524 1523 1523 1522 1522 1522 1522 1522 1522 1521 1520 1519 1519 1518 1517 1516 1514 1514 1511
1505 1503 1508 1509 1504 1501 1500 1501 1502 1503 1504 1507 1509 1511 1512 1513 1515 1516 1518 1520 1521 1523 1524 1524 1524 1522 1522 1521 1521 1521 1520 1520 1520 1519 1517 1517 1518 1517 1515 1513 1511 1509 1509 1509
1507 1504 1508 1509 1504 1503 1503 1503 1503 1505 1507 1508 1510 1510 1510 1512 1514 1515 1517 1520 1521 1522 1523 1523 1523 1522 1521 1521 1520 1520 1520 1519 1518 1517 1517 1515 1514 1512 1510 1509 1507 1505 1506 1506
1501 1503 1510 1513 1502 1502 1501 1502 1504 1505 1506 1508 1509 1510 1510 1512 1514 1517 1519 1520 1521 1521 1521 1521 1522 1522 1520 1520 1519 1519 1519 1519 1517 1516 1515 1514 1511 1508 1506 1504 1503 1501 1501 1504
Wind_Speed
2 3 5 11 10 8 6 15 14 9 9 1 3 13 19 22 23 17 20 27 30 31 27 29 31 31 30 28 30 26 22 17 14 13 16 18 18 13 11 6 3 5 5 5
4 6 10 5 6 7 5 6 6 4 7 3 1 4 3 11 16 19 15 21 25 25 25 22 28 34 35 31 31 28 23 20 17 12 14 19 14 12 11 8 7 7 5 4
6 9 5 3 4 3 4 7 9 6 8 3 5 1 3 2 10 20 21 21 26 24 20 25 28 30 33 33 28 28 26 25 20 14 15 18 15 12 11 10 9 8 5 3
5 8 5 4 6 8 5 12 11 11 10 3 4 2 2 4 8 4 2 10 20 28 24 27 29 29 32 30 28 28 26 25 20 16 16 23 18 12 10 14 13 11 7 4
7 6 7 5 5 5 7 12 11 5 6 6 6 4 5 5 6 7 6 10 10 12 13 33 32 29 28 28 27 27 24 22 20 19 19 24 20 15 9 8 7 8 9 7
10 9 4 8 5 8 9 8 9 6 4 2 3 4 4 3 6 6 13 18 21 22 22 26 37 32 31 35 31 28 25 23 21 20 20 25 23 15 15 14 11 9 8 8
6 6 5 4 3 4 5 5 3 3 1 4 2 4 6 5 10 10 14 20 26 27 22 25 38 38 38 38 38 33 28 24 22 22 22 26 26 20 16 15 13 12 11 8
0 8 2 2 7 8 0 7 5 3 3 3 1 2 5 13 14 18 20 21 29 21 25 26 37 43 43 40 38 37 33 27 24 24 22 22 23 20 17 17 15 13 13 9
3 5 6 3 2 7 3 3 4 8 3 4 3 5 8 11 12 20 14 18 34 6 18 19 32 39 43 41 43 41 37 30 25 25 24 24 22 21 20 20 18 16 15 12
2 3 2 5 2 5 3 7 3 3 5 3 4 5 5 7 1 6 14 15 13 8 15 21 25 36 40 43 42 44 41 34 26 25 27 26 24 23 21 22 22 20 18 17
4 4 7 2 2 3 4 1 7 6 4 5 4 5 7 12 6 1 14 10 7 6 5 13 19 31 41 40 44 45 45 39 33 28 28 28 25 24 24 25 24 23 22 20
3 5 2 4 1 2 3 4 5 5 3 3 4 5 4 8 12 14 21 17 11 11 7 9 14 22 29 35 38 42 45 44 37 30 31 28 27 25 25 26 26 25 25 24
3 4 3 9 7 6 5 4 6 6 4 3 5 5 3 8 13 16 16 20 18 13 7 6 9 11 15 21 31 37 42 41 38 35 32 29 27 27 26 23 22 22 25 25
6 4 5 5 7 3 2 4 3 5 4 6 5 3 4 7 8 18 19 11 9 14 13 8 12 14 17 15 22 35 39 42 40 40 37 34 32 28 29 28 27 26 24 25
5 2 1 4 6 3 2 3 4 5 5 5 8 9 8 7 9 13 5 2 7 10 9 5 11 8 10 12 19 28 32 34 33 34 36 37 35 34 31 29 29 27 27 29
4 0 2 5 7 7 6 6 7 6 5 9 8 3 5 12 4 8 5 2 5 8 12 11 4 4 5 8 10 17 19 21 26 25 26 33 36 35 30 29 29 28 28 27
3 3 3 5 6 4 6 7 2 3 4 13 10 8 11 5 12 14 10 6 7 8 8 7 8 7 2 7 6 11 11 5 17 19 17 19 24 27 35 30 30 29 30 28
4 4 2 3 5 4 6 6 3 6 4 1 4 6 9 15 14 11 10 7 8 11 13 14 14 12 9 6 0 9 14 26 30 23 22 30 30 48 33 26 33 25 25 27
2 5 3 3 1 3 4 5 3 6 3 2 7 7 9 14 13 8 7 4 4 6 9 11 12 9 8 9 11 10 5 4 13 23 23 28 39 38 27 15 15 20 22 21
6 6 4 2 3 2 7 4 7 5 3 1 8 13 17 16 3 4 9 5 2 3 4 4 1 4 6 6 6 8 5 4 7 13 17 22 25 23 15 15 17 16 17 16
3 3 4 2 2 5 5 3 1 3 7 9 20 24 24 5 7 11 11 9 4 1 0 3 6 7 5 4 4 6 9 8 3 5 7 8 13 17 18 13 12 11 10 11
3 4 1 2 3 3 2 1 4 6 11 17 17 18 24 9 10 14 13 13 11 8 6 6 8 8 7 7 5 4 7 4 6 5 4 4 5 7 11 13 14 14 14 14
2 4 4 5 5 5 3 5 20 21 20 15 13 12 17 14 14 14 12 14 13 10 9 7 4 6 6 3 3 6 5 1 6 8 8 6 5 8 11 13 14 14 12 14
5 2 3 3 3 1 7 16 18 18 17 14 12 12 14 13 14 16 15 13 9 6 5 2 3 4 3 5 6 5 4 4 7 6 5 5 6 10 12 10 12 12 14 14
4 3 2 2 3 2 4 11 16 15 13 11 9 7 14 17 18 16 14 13 9 7 5 3 1 4 7 6 4 3 3 4 4 4 3 4 6 9 8 7 9 11 8 9
5 5 4 4 4 7 10 13 15 14 11 7 6 7 18 22 21 18 15 12 8 5 4 4 3 4 5 7 5 2 0 1 2 2 3 5 9 6 6 8 11 4 2 4
Wind_Direction
253 132 205 223 200 215 190 145 168 227 232 265 264 161 170 163 180 193 212 214 217 223 230 224 222 230 231 228 219 217 210 205 208 213 225 222 217 231 228 219 238 245 272 294
11 251 236 230 211 217 212 157 193 179 162 124 51 265 230 173 172 184 204 225 220 227 235 219 219 226 229 219 213 217 215 210 208 210 219 206 214 221 233 247 263 243 254 283
181 246 343 185 189 217 204 192 185 158 147 128 124 256 4 318 193 194 199 218 228 238 209 203 206 212 216 211 210 213 211 209 212 206 208 213 214 230 230 241 243 246 244 273
238 279 230 297 177 165 284 187 164 146 137 190 68 182 27 300 303 80 131 215 220 234 233 205 205 207 209 209 213 213 210 215 215 211 218 213 214 227 247 249 254 244 236 286
247 266 341 324 241 183 243 143 142 136 78 66 336 72 308 357 299 264 272 245 232 224 244 222 211 216 216 214 221 217 223 228 227 220 220 211 217 228 228 230 236 237 241 268
255 268 246 227 277 168 113 77 45 52 83 34 284 103 297 243 247 285 273 263 237 231 236 236 217 218 226 219 222 223 228 233 228 224 220 216 219 230 228 240 244 249 255 262
321 279 278 189 87 60 93 106 40 18 62 217 234 71 234 246 246 247 257 236 227 241 242 235 222 214 222 223 221 222 226 231 224 222 224 223 227 229 227 232 243 240 243 238
64 329 250 94 181 185 262 132 152 215 145 241 25 129 249 229 250 238 235 242 240 236 226 226 223 220 223 227 225 225 226 228 224 221 221 219 223 223 228 229 233 238 220 237
152 279 303 243 233 121 182 74 163 106 6 72 309 284 292 234 240 214 242 210 228 239 244 232 218 220 222 227 229 228 228 228 229 228 225 223 223 223 224 223 227 229 228 235
232 309 279 317 22 44 103 156 75 17 130 91 322 290 247 297 308 234 189 194 213 238 226 226 223 221 225 227 235 233 233 231 230 230 231 229 227 227 227 227 232 232 234 237
139 155 291 22 20 222 26 32 57 111 101 142 159 267 228 254 271 168 147 157 164 201 210 211 208 219 224 230 232 235 235 231 230 231 233 233 232 231 234 235 237 238 238 239
224 127 263 245 302 330 211 138 134 122 196 87 131 257 279 251 289 301 306 318 327 322 274 227 217 213 218 230 236 240 239 235 234 236 238 238 240 237 236 239 241 239 242 242
207 30 18 350 3 8 14 11 104 110 95 190 128 248 353 307 300 287 299 303 324 335 326 273 247 226 230 239 234 239 240 237 238 233 239 240 241 242 238 237 239 240 241 243
79 86 136 167 232 202 324 314 150 120 112 167 202 183 284 285 296 291 283 301 339 353 346 292 218 225 228 240 241 236 236 237 237 235 239 242 245 248 250 246 247 246 245 244
86 72 178 238 253 210 328 300 271 121 138 144 193 158 220 222 237 258 260 335 343 7 23 334 221 202 212 222 224 229 231 234 239 244 246 244 246 249 254 253 256 261 257 252
8 143 325 336 0 25 57 30 52 52 110 74 109 88 168 199 190 148 166 69 40 29 45 53 95 206 204 204 216 226 224 236 242 249 262 261 249 247 260 268 260 261 266 264
65 101 53 295 350 6 18 330 343 82 68 148 155 206 159 155 163 165 161 148 87 68 67 65 59 63 209 246 219 180 190 225 275 271 251 258 268 271 267 263 268 267 265 267
138 96 79 257 8 63 241 314 226 109 80 125 96 132 151 161 164 156 159 115 105 95 86 83 72 70 70 77 274 251 239 230 254 239 258 256 242 261 280 278 278 281 276 264
151 118 79 128 148 296 2 335 146 130 251 306 133 127 139 145 129 147 159 108 94 105 95 88 63 60 60 45 47 50 65 229 244 250 251 219 241 266 272 295 286 273 271 266
77 75 117 114 117 181 225 308 94 83 336 335 154 142 143 147 128 252 166 163 119 105 82 54 75 32 26 16 18 28 29 306 256 246 251 258 257 254 257 272 279 279 279 276
42 18 123 112 144 284 250 278 115 141 229 164 163 164 167 170 192 184 179 191 169 164 194 340 280 299 299 291 329 0 345 332 276 225 233 255 252 255 272 288 297 299 301 304
146 128 151 98 87 253 344 186 194 186 135 148 152 175 186 171 148 181 199 204 205 208 219 261 294 308 316 290 296 340 351 22 67 58 335 304 308 292 293 293 293 291 288 294
27 176 182 162 213 255 345 138 132 138 134 139 144 157 174 176 189 200 205 211 217 217 234 247 259 306 326 355 6 6 359 49 350 338 324 300 302 307 310 311 301 287 290 302
331 158 98 72 295 261 113 133 141 149 149 156 164 179 179 186 195 211 204 203 190 178 197 261 317 300 326 2 10 29 33 5 342 347 352 351 342 334 312 316 312 300 300 312
230 11 120 321 292 136 182 174 162 157 151 155 159 172 190 169 158 164 160 162 168 182 196 199 350 15 30 15 343 342 15 41 69 59 27 360 338 344 359 325 327 327 316 323
195 180 139 219 238 217 210 184 174 166 170 197 224 210 183 168 156 158 161 173 179 187 228 248 288 305 323 333 345 319 84 160 201 176 348 358 359 353 348 313 325 28 27 16